This is the latest recevied weather packets stored in our database for station/object KB3KAV. If no packets are shown the sender has not sent any weather packets the latest 10 day(s).
| Time | Temp. | Humidity | Pressure | Rain* | Wind** | Luminosity | Snow |
|---|---|---|---|---|---|---|---|
| 1777524915 | 9.44° C | 95% | 1036.1 hPa | 0 mm | - | 0 W/m² | - |
| 1777524311 | 10° C | 95% | 1036.2 hPa | 0 mm | - | 0 W/m² | - |
| 1777523709 | 10° C | 95% | 1036.4 hPa | 0 mm | - | 0 W/m² | - |
| 1777523108 | 10° C | 95% | 1036.5 hPa | 0 mm | - | 0 W/m² | - |
| 1777522507 | 10° C | 95% | 1036.6 hPa | 0 mm | - | 0 W/m² | - |
| 1777521906 | 10° C | 95% | 1036.6 hPa | 0 mm | - | 0 W/m² | - |
| 1777521306 | 10° C | 95% | 1036.7 hPa | 0 mm | - | 0 W/m² | - |
| 1777520706 | 10° C | 95% | 1036.7 hPa | 0 mm | - | 0 W/m² | - |
| 1777520106 | 10° C | 95% | 1036.7 hPa | 0 mm | - | 0 W/m² | - |
| 1777519500 | 10° C | 95% | 1036.5 hPa | 0 mm | - | 0 W/m² | - |
| 1777518898 | 10° C | 95% | 1036.4 hPa | 0 mm | - | 0 W/m² | - |
| 1777518295 | 10° C | 95% | 1036.7 hPa | 0 mm | - | 0 W/m² | - |
| 1777517694 | 10° C | 95% | 1036.8 hPa | 0 mm | - | 0 W/m² | - |
| 1777517090 | 10° C | 95% | 1036.8 hPa | 0 mm | - | 0 W/m² | - |
| 1777516489 | 10° C | 95% | 1036.4 hPa | 0 mm | - | 0 W/m² | - |
| 1777515889 | 10° C | 95% | 1035.4 hPa | 0 mm | - | 0 W/m² | - |
| 1777515288 | 10° C | 95% | 1036.5 hPa | 0 mm | - | 0 W/m² | - |
| 1777514686 | 10° C | 95% | 1036.6 hPa | 3.05 mm | - | 0 W/m² | - |
| 1777514086 | 10° C | 95% | 1036.9 hPa | 4.83 mm | - | 0 W/m² | - |
| 1777513480 | 10° C | 95% | 1037.1 hPa | 3.05 mm | - | 0 W/m² | - |
| 1777512878 | 10° C | 95% | 1037.3 hPa | 7.87 mm | - | 0 W/m² | - |
| 1777512277 | 10° C | 95% | 1037.3 hPa | 4.32 mm | - | 0 W/m² | - |
| 1777511672 | 10° C | 95% | 1036.9 hPa | 6.6 mm | - | 0 W/m² | - |
| 1777511072 | 10° C | 95% | 1036.8 hPa | 4.32 mm | - | 0 W/m² | - |
| 1777510471 | 10° C | 95% | 1036.8 hPa | 3.05 mm | - | 0 W/m² | - |
* Rain latest hour (hover to see other rain measurements)
** Current wind speed in m/s (hover to see current wind gust speed)